Flag for U.S.A. Weather past 2 weeks in Alpena, Michigan, U.S.A.

Now
55 °F

Fog.


Feels Like: 53 °F
Forecast: 54 / 62 °F
Wind: 8 mph from Southeast

Location: Alpena County Regional Airport

Current Time: Oct 2, 2014 at 7:33:59 AM

Latest Report: Oct 2, 2014 at 6:54 AM


Visibility: 3 mi

Pressure: 30.00 "Hg

Humidity: 100%

Dew point: 55 °F

Location of AlpenaLocation

Historic Weather in Alpena — Graph

°F

Alpena temperature yesterday

Maximum temperature yesterday: 58 °F (at 3:54 PM)
Minimum temperature yesterday: 52 °F (at 12:54 AM)
Average temperature yesterday: 55 °F

Past Weeks' High & Low Weather Summary

 TemperatureHumidityPressure
High76 °F (Sep 27, 1:54 PM)100% (Sep 21, 3:01 AM)30.44 "Hg (Sep 21, 3:01 AM)
Low33 °F (Sep 19, 5:54 AM)40% (Sep 25, 1:54 PM)29.57 "Hg (Sep 21, 6:54 AM)
Average55 °F82%30.11 "Hg
* Reported Sep 17 5:54 AM — Oct 2 5:59 AM, Alpena, Weather by CustomWeather, © 2014

Note: Actual official high and low records may vary slightly from our data, if they occured in-between our weather recording intervals... More about our weather records

Advertising

Alpena weather history for previous 24 hours

 ConditionsComfort  
Time TempWeatherWind HumidityBarometerVisibility
5:59 AM
Oct 2
54 °FFog.6 mph100%29.99 "Hg2 mi
4:54 AM55 °FFog.6 mph96%30.01 "Hg3 mi
3:54 AM52 °FFog.3 mph100%30.02 "Hg0 mi
2:54 AM50 °FFog.6 mph100%30.02 "Hg0 mi
2:04 AM52 °FFog.3 mph100%30.02 "Hg1 mi
1:54 AM53 °FFog.3 mph96%30.03 "Hg2 mi
12:54 AM53 °FFog.6 mph100%30.04 "Hg2 mi
11:54 PM
Oct 1
54 °FFog.6 mph100%30.04 "Hg2 mi
11:03 PM54 °FFog.5 mph100%30.05 "Hg1 mi
9:54 PM58 °FFog.8 mph97%30.05 "Hg5 mi
8:54 PM58 °FFog.10 mph97%30.03 "Hg3 mi
7:54 PM57 °FFog.8 mph100%30.03 "Hg2 mi
6:54 PM58 °FFog.10 mph97%30.03 "Hg2 mi
6:01 PM58 °FFog.7 mph97%30.03 "Hg2 mi
5:02 PM58 °FFog.7 mph97%30.03 "Hg2 mi
3:54 PM58 °FFog.6 mph97%30.05 "Hg2 mi
2:54 PM57 °FFog.7 mph100%30.07 "Hg1 mi
1:54 PM57 °FFog.6 mph100%30.09 "Hg2 mi
12:54 PM56 °FFog.5 mph100%30.10 "Hg2 mi
11:54 AM55 °FFog.6 mph100%30.10 "Hg4 mi
10:54 AM54 °FFog.3 mph100%30.10 "Hg1 mi
9:54 AM54 °FFog.5 mph100%30.10 "Hg1 mi
8:54 AM53 °FFog.7 mph100%30.09 "Hg1 mi
8:03 AM53 °FFog.6 mph100%30.08 "Hg1 mi
7:54 AM53 °FFog.5 mph100%30.09 "Hg1 mi
Weather by CustomWeather, © 2014

See weather overviewHow to use our weather pages